Regional Weather Roundup
Issued by NWS Albany, NY

Home | Current Version | Previous Version | Graphics & Text | Print | Product List | Glossary Off
Versions: 1 2 3 4 5 6 7 8 9 10 11 12 13 14 15 16 17 18 19 20 21 22 23 24 25 26 27

000
ASUS41 KALY 300610
RWRALY

NEW YORK STATE HOURLY WEATHER ROUNDUP
NATIONAL WEATHER SERVICE ALBANY NY
200 AM EDT TUE MAY 30 2017

NOTE: "FAIR" INDICATES FEW OR NO CLOUDS BELOW 12,000 FEET WITH NO
SIGNIFICANT WEATHER AND/OR NO OBSTRUCTIONS TO VISIBILITY.

NYZ032-033-038>043-046>054-057>066-NYZ062>081-082-084-300700-
EAST


CITY           SKY/WX    TMP DP  RH WIND       PRES   REMARKS
ALBANY         CLOUDY    56  50  80 S13G20    30.07S
GLENS FALLS    NOT AVBL
POUGHKEEPSIE   CLOUDY    55  51  86 CALM      30.11S
NEWBURGH       CLOUDY    55  54  94 CALM      30.12S
MONTGOMERY     CLOUDY    55  53  93 S3        30.10S FOG
WHITE PLAINS   DRIZZLE   54  52  93 E3        30.12R
ISLIP          CLOUDY    54  51  90 E8        30.13R
NEW YORK CITY  CLOUDY    56  52  86 SE9       30.12S
CENTRAL PARK   CLOUDY    56  53  90 CALM      30.15S
$$

NYZ005>009-017-018-044>046-055-056-300700-
CENTRAL


CITY           SKY/WX    TMP DP  RH WIND       PRES   REMARKS
FULTON         PTCLDY    58  56  93 VRB3      29.95R
SYRACUSE       MOCLDY    58  57  97 VRB6      29.94S
ROME           CLOUDY    57  55  93 E8        30.00S
ELMIRA         PTCLDY    53  50  89 CALM      29.97S
BINGHAMTON     CLOUDY    55  55 100 S8        30.01S
MONTICELLO     CLOUDY    52  52 100 SE7       30.11R
$$

NYZ026>034-041>043-087-300700-
NORTH


CITY           SKY/WX    TMP DP  RH WIND       PRES   REMARKS
WATERTOWN      CLEAR     59  56  89 S8        29.90R
FORT DRUM      NOT AVBL
OGDENSBURG     FAIR      58  56  91 S7        29.89F
MASSENA        CLEAR     52  51  97 SW5       29.92R
SARANAC LAKE   PTCLDY    41  41 100 CALM      29.98R
PLATTSBURGH    MOCLDY    54  50  86 S8        29.99R
$$

NYZ001>004-010>016-019>021-085-300700-
WEST


CITY           SKY/WX    TMP DP  RH WIND       PRES   REMARKS
NIAGARA FALLS  LGT RAIN  63  53  70 SW10      29.90R
BUFFALO        MOCLDY    63  52  67 W6        29.90R
DUNKIRK        CLOUDY    64  54  69 W5        29.92R
JAMESTOWN      CLEAR     55  50  82 S7        29.93S
WELLSVILLE     PTCLDY    62  47  57 S5        29.99S
ROCHESTER      CLOUDY    64  52  64 SW5       29.90F
PENN YAN       CLOUDY    57  48  72 CALM      29.96S
$$

             KEY
       WCI = WIND CHILL INDEX
       VSB = VISIBILITY
       HX  = HEAT INDEX
$$




USA.gov is the U.S. government's official web portal to all federal, state and local government web resources and services.